Location: Stull Observatory
(42.2506°N, 77.7903°W)
Time: 05:30:46
(UTC-05:00)

Daily predictions for brighter satellites

Satellite Brightness Start Highest point End
(mag) Time Altitude Azimuth Time Altitude Azimuth Time Altitude Azimuth
CENTAUR R/B 4.3 03:40:26 26° NE 03:40:26 26° NE 03:43:17 10° NE
Lacrosse 5 4.4 03:55:31 16° ESE 03:55:44 16° ESE 03:58:46 10° E
SL-16 R/B 3.6 04:40:07 27° NNE 04:40:07 27° NNE 04:42:42 10° NNE
Cosmos 2074 Rocket 4.2 04:38:33 10° S 04:44:47 70° E 04:51:01 10° NNE
Meteor 1-25 Rocket 4.1 04:48:56 10° S 04:54:47 85° W 05:00:38 10° N
Cosmos 2056 Rocket 3.9 04:53:33 43° NNE 04:54:56 57° ENE 04:59:57 10° SE
ADEOS II 4.4 04:51:30 10° N 04:51:54 12° N 04:51:54 12° N
Cosmos 2184 Rocket 3.9 04:55:40 10° S 05:01:50 90° ESE 05:08:05 10° N
SKYMED 2 4.5 04:58:37 10° SE 05:02:46 47° ENE 05:04:44 27° NNE
CZ-3 R/B 4.0 04:55:48 10° SW 05:05:31 20° S 05:10:04 10° SE
Cosmos 2237 Rocket 4.4 05:10:20 11° N 05:10:20 11° N 05:10:36 10° N
Cosmos 1624 Rocket 4.0 05:06:56 47° NNW 05:08:32 82° ENE 05:13:51 10° SSE
Abrixas rocket 3.7 05:10:25 37° ESE 05:10:25 37° ESE 05:12:57 10° ENE
Ariane Rocket 4.4 05:05:11 10° NNE 05:09:54 38° E 05:14:34 10° SSE
Cosmos 1346 Rocket 3.6 05:11:32 41° S 05:11:32 41° S 05:14:10 10° S
USA 215 3.4 05:04:34 10° NE 05:11:06 74° SE 05:16:25 16° SW
Cosmos 1371 Rocket 3.9 05:12:44 61° NW 05:13:33 74° WSW 05:18:46 10° S
Cosmos 1238 Rocket 3.7 05:15:35 51° WSW 05:15:35 51° WSW 05:20:40 10° S
USA 32 3.9 05:15:03 58° NW 05:15:43 65° W 05:20:54 10° S
Cosmos 2154 Rocket 4.4 05:11:34 10° S 05:17:39 63° E 05:23:46 10° NNE
SJ-6F 4.3 05:15:36 10° NNE 05:19:41 89° WNW 05:23:45 10° SSW
Cosmos 1536 Rocket 4.3 05:24:38 37° SW 05:24:38 37° SW 05:27:32 10° S
CENTAUR R/B 3.5 05:27:39 28° NW 05:27:52 29° NW 05:33:53 10° NNE
Cosmos 1025 Rocket 4.3 05:25:08 10° N 05:29:18 40° ENE 05:33:24 10° SSE
PSLV R/B 4.2 05:30:05 38° S 05:30:05 38° S 05:32:58 10° SE
Cosmos 921 Rocket 4.3 05:34:12 27° SW 05:34:12 27° SW 05:36:49 10° SSW
Cosmos 2369 Rocket 2.5 05:28:50 16° NNW 05:33:24 66° ENE 05:39:04 10° SE
Cosmos 1603 3.6 05:29:17 10° SW 05:34:54 61° WNW 05:40:32 10° NNE
Cosmos 44 Rocket 3.3 05:30:43 10° SSW 05:35:54 88° WNW 05:41:03 10° NNE
Lacrosse 5 1.8 05:34:49 23° SW 05:38:04 86° NW 05:43:12 10° NE
Cosmos 1610 Rocket 4.4 05:32:38 10° SSW 05:38:45 66° W 05:45:01 10° N
CZ-4 R/B 3.7 05:38:58 10° NE 05:42:15 25° E 05:45:31 10° SSE
Cosmos 192 4.2 05:37:23 10° SSW 05:42:16 70° WNW 05:47:11 10° NNE
Cosmos 1452 Rocket 3.8 05:39:09 11° NNW 05:44:15 67° ENE 05:49:30 10° SSE
Okean 1 Rocket 2.9 05:39:58 10° SSW 05:44:20 72° W 05:48:43 10° N
Cosmos 1536 3.0 05:40:51 10° S 05:44:48 73° E 05:48:50 10° NNE
COSMO-SKYMED 1 2.7 05:46:33 10° S 05:50:46 50° W 05:53:19 22° NNW
Cosmos 1943 3.1 05:53:20 10° SSW 05:58:57 84° WNW 06:04:39 10° NNE
NOAA 6 4.4 05:56:46 10° N 06:01:30 39° WNW 06:06:13 10° SW
Lacrosse 4 Rocket 3.3 05:58:00 10° N 06:01:31 26° NE 06:04:58 10° ESE
Okean 1-7 Rocket 3.6 05:58:48 11° NNW 06:02:58 53° W 06:07:14 10° S
Lacrosse 5 rocket 3.7 06:07:05 10° NNW 06:08:25 11° N 06:09:46 10° NNE
Cosmos 1300 Rocket 4.3 06:06:51 10° SW 06:10:43 29° WNW 06:14:37 10° NNW
SL-23 DEB 4.0 06:08:59 22° NW 06:10:44 47° NNE 06:14:17 10° ESE
Nadezhda 3 Rocket 4.2 06:04:55 10° NNW 06:11:03 51° W 06:17:10 10° SSW
Cosmos 1892 Rocket 4.0 06:06:37 10° N 06:11:04 67° E 06:15:31 10° SSE
Cosmos 1295 Rocket 4.5 06:06:53 10° S 06:13:12 84° W 06:19:28 10° N
Tiangong 2 1.0 06:12:41 26° W 06:14:18 82° SSW 06:17:27 10° ESE
Cosmos 1943 Rocket 2.5 06:10:07 10° NNW 06:15:37 67° ENE 06:21:06 10° SSE
Cosmos 1633 3.4 06:13:16 10° SW 06:16:26 27° WNW 06:19:34 10° NNW
GRACE-2 3.7 06:15:04 10° N 06:17:52 85° W 06:20:38 10° S
GRACE-1 3.7 06:15:29 10° N 06:18:17 82° W 06:21:03 10° S
PAYLOAD A 4.2 06:15:14 10° NNE 06:20:39 85° ESE 06:26:06 10° SSW
SL-16 R/B 3.9 06:22:04 12° NW 06:22:17 12° NW 06:24:38 10° NNW
Cosmos 1269 Rocket 4.4 06:17:49 10° S 06:23:04 71° ESE 06:28:22 10° NNE
USA 229 DEB 3.8 06:19:25 10° SSW 06:26:19 89° SE 06:33:19 10° NE
USA 229 3.8 06:19:32 10° SSW 06:26:25 88° SE 06:33:25 10° NE
Helios 1B rocket 2.8 06:23:04 10° SSE 06:27:11 68° ENE 06:31:19 10° N
DELTA 2 R/B(2) 4.2 06:25:43 12° WSW 06:27:51 42° S 06:29:28 10° ESE
Cosmos 1975 4.2 06:25:20 10° SSE 06:29:13 43° E 06:33:07 10° NNE
Cosmos 1727 Rocket 4.3 06:26:06 10° N 06:32:17 70° E 06:38:27 10° SSE
Cosmos 468 4.5 06:28:53 10° SSW 06:34:07 69° WNW 06:39:25 10° NNE
Cosmos 44 3.7 06:29:45 10° SW 06:34:57 50° NW 06:39:59 10° NNE
Cosmos 2341 Rocket 4.3 06:29:57 10° SSW 06:35:53 43° WNW 06:41:50 10° N
SMAP 3.2 06:31:28 10° NNE 06:36:08 79° ESE 06:40:47 10° S
Cosmos 1455 Rocket 3.1 06:32:32 10° S 06:36:51 85° E 06:41:13 10° N
Cosmos 1420 Rocket 4.0 06:33:15 10° NNW 06:38:30 71° WSW 06:43:39 10° S
Cosmos 1500 4.5 06:36:55 10° SSE 06:40:29 44° E 06:44:06 10° NNE
Cosmos 2263 4.5 06:35:29 10° NW 06:40:53 49° WSW 06:46:15 10° S
MOS 1 4.5 06:35:56 10° NNE 06:41:37 80° ESE 06:47:16 10° SSW
USA 129 3.5 06:40:16 10° SW 06:41:44 17° W 06:42:48 13° WNW
SJ-7 4.4 06:39:53 10° NNE 06:44:05 89° W 06:48:10 10° SSW
Cosmos 2084 3.2 06:40:27 10° SSW 06:44:19 85° SE 06:48:08 10° NE
SPOT 3 Rocket 3.6 06:40:47 10° NNE 06:45:58 89° ESE 06:51:07 10° SSW
Abrixas rocket 2.8 06:43:29 10° W 06:46:42 40° NNW 06:49:54 10° NE
Ariane Rocket 3.9 06:44:29 10° N 06:48:40 27° WNW 06:52:51 10° WSW
Cosmos 1048 Rocket 3.9 06:48:04 10° SSW 06:53:10 70° WNW 06:58:22 10° NNE
USA 215 3.7 06:47:49 10° NE 06:53:50 41° NNW 06:59:51 10° W
CZ-4 R/B 4.5 06:52:10 10° NNE 06:56:22 85° WNW 07:00:32 10° SSW
Meteor 1-29 2.9 06:53:40 10° S 06:57:00 64° WSW 07:00:22 10° NNW
Cosmos 864 Rocket 4.5 06:51:25 10° SSW 06:57:31 69° W 07:03:43 10° N
Cosmos 1340 3.5 06:55:00 10° NNW 06:58:22 31° W 07:01:44 10° SSW
CSL-04 Rocket 4.5 06:54:44 10° N 06:59:29 30° WNW 07:04:11 10° WSW
